Wind_Speed
10 10 10 10 10 10 9 9 8 8 8 8 8 8 7 7 7 6 6 5 4 4 4 4 4 4 3 2 2 3 3 4 3 4 4 5 5 6 6 7 7 7 8
11 11 10 10 10 10 9 9 8 8 8 8 8 8 7 7 6 6 6 5 5 4 4 4 3 4 3 3 2 2 3 3 3 3 4 4 6 6 7 7 7 7 8
11 10 10 10 10 10 9 9 9 8 8 8 8 8 7 7 6 6 6 6 5 5 4 4 4 4 3 3 2 2 2 2 3 3 4 4 5 5 6 7 6 6 8
10 10 9 10 10 9 9 9 9 8 8 8 8 8 7 7 6 7 6 6 5 5 5 4 4 4 3 2 2 2 2 2 3 3 4 4 5 5 5 6 5 5 7
10 9 9 9 9 9 9 9 9 9 8 8 8 7 7 7 7 7 7 6 6 5 5 4 4 3 3 2 2 2 2 2 3 3 3 4 5 5 5 5 5 5 6
10 9 9 9 9 9 9 9 9 8 8 9 9 8 8 7 8 7 7 7 6 6 4 4 4 4 3 2 2 2 2 3 3 3 3 4 5 5 5 5 5 5 6
9 9 9 9 9 9 9 9 9 9 8 9 9 9 9 8 8 8 7 7 7 6 5 5 5 4 3 2 2 1 2 2 3 3 4 4 5 6 6 6 5 6 7
9 10 9 9 9 9 9 9 9 9 9 9 9 9 9 9 8 8 8 8 8 8 6 6 6 4 4 2 2 2 2 3 3 4 4 5 6 6 6 6 6 6 7
10 9 9 9 9 9 9 9 9 9 9 9 8 9 9 9 8 9 8 9 8 7 6 6 5 4 4 3 2 2 3 3 3 4 4 5 6 6 6 6 6 7 8
9 9 9 9 9 9 9 9 9 9 9 8 8 8 9 9 8 8 8 8 8 8 7 6 6 5 4 4 3 3 3 3 3 3 4 5 6 6 6 7 7 8 9
9 9 9 9 9 9 9 9 10 9 9 9 8 8 8 8 8 8 8 8 8 8 7 7 7 6 5 4 3 3 2 3 3 4 5 5 6 6 6 7 7 9 9
9 9 9 9 10 9 9 10 10 9 9 9 8 8 9 9 9 8 8 8 7 7 7 7 6 6 5 5 4 4 3 2 2 4 5 5 5 6 7 7 8 8 8
9 9 9 9 9 10 10 10 10 10 9 9 9 9 9 8 8 8 8 8 8 7 7 7 6 6 5 4 5 5 5 4 3 3 4 5 6 6 7 8 8 8 8
9 9 9 8 8 9 9 9 10 10 10 9 9 9 8 8 9 8 8 8 8 8 7 7 7 6 5 5 5 5 5 4 4 4 5 6 6 7 7 8 8 10 10
9 9 9 8 8 8 8 9 9 9 10 10 9 9 9 9 9 8 9 8 8 8 7 8 7 6 6 5 5 5 5 5 5 5 6 6 6 7 7 9 10 10 10
9 9 9 8 8 9 9 9 10 10 10 10 9 9 10 10 10 9 9 8 8 8 8 8 7 7 6 6 6 6 5 4 4 4 5 6 6 6 6 7 8 8 8
9 9 9 9 8 9 9 10 10 10 10 10 9 9 10 10 10 10 9 8 8 8 8 7 7 6 6 6 7 6 6 4 4 4 5 5 5 5 6 7 7 8 7
10 10 10 9 9 9 9 9 10 10 9 9 9 10 10 10 10 10 10 9 8 8 8 8 8 7 7 7 7 7 7 6 6 6 6 6 5 5 6 7 7 7 8
11 11 10 10 10 10 10 10 10 10 10 10 10 10 10 10 9 9 10 9 8 7 8 8 8 8 8 8 8 8 8 7 7 8 8 7 7 7 7 7 7 7 8
10 10 10 10 10 10 11 11 11 10 10 11 11 11 10 9 9 9 9 8 8 8 8 8 9 9 9 9 9 9 9 8 7 7 8 8 7 7 7 7 8 8 8
10 9 11 10 11 11 11 11 11 11 11 11 11 11 10 9 9 9 9 9 9 9 9 8 8 9 9 9 9 9 9 9 8 8 8 8 8 8 8 8 9 9 9
10 10 10 10 11 11 11 11 11 11 11 11 11 10 10 10 10 9 10 10 9 9 9 9 9 9 10 9 9 10 10 10 9 9 8 8 8 8 9 9 9 10 10
10 10 10 11 11 11 11 11 11 11 12 12 11 10 10 10 10 10 10 10 9 9 9 10 10 10 10 10 10 10 10 11 11 10 10 9 10 9 9 10 10 11 11
12 11 11 11 12 11 11 11 11 11 12 12 11 10 10 10 10 10 10 9 9 9 10 10 10 10 10 11 11 11 11 11 10 11 11 12 11 11 11 11 12 12 12
13 13 13 12 12 12 12 11 11 12 12 12 11 11 10 10 10 10 10 10 9 10 10 11 11 11 11 11 12 12 12 12 11 12 13 13 12 12 13 12 13 13 14
15 15 14 14 13 13 13 12 12 12 12 12 11 11 11 11 11 11 11 11 11 11 12 12 12 12 12 12 12 12 12 12 12 12 13 13 13 13 13 13 14 15 16
Wind_Direction
21 26 25 22 20 17 13 10 5 0 356 352 350 350 349 347 344 340 335 331 323 315 309 304 305 301 286 269 258 246 232 232 233 236 226 219 217 214 206 204 206 211 208
23 24 22 20 18 15 11 8 4 0 357 353 352 351 351 349 349 347 343 339 333 327 319 310 310 311 301 281 262 243 231 229 227 224 212 213 205 206 204 206 211 210 213
21 22 22 19 17 15 10 8 4 1 357 355 355 356 357 356 355 354 351 348 343 339 335 326 314 311 305 292 269 249 236 231 222 216 207 202 197 195 197 200 205 209 215
17 19 20 18 17 15 10 6 4 1 359 358 359 359 0 359 358 356 355 352 349 347 346 341 330 320 315 305 280 250 235 234 219 217 208 194 192 194 198 201 209 211 215
14 16 18 19 19 15 10 6 5 4 3 2 1 2 2 360 358 357 358 355 351 350 352 354 350 338 327 314 293 263 235 232 224 221 207 199 201 198 203 207 211 213 210
14 13 15 18 18 15 12 9 7 5 4 4 3 2 0 358 356 353 352 354 355 356 355 351 349 347 345 333 306 271 237 225 225 226 220 216 210 209 210 213 216 215 214
15 12 11 13 15 14 12 10 8 6 3 1 2 2 357 353 352 353 352 348 351 353 355 355 351 350 354 356 334 291 252 234 234 230 235 220 211 214 220 223 218 216 218
13 9 8 10 11 9 9 10 9 7 5 3 360 359 359 1 358 355 356 357 354 354 352 355 356 359 7 357 331 302 266 242 231 225 222 219 219 220 226 226 223 218 218
13 12 11 9 8 8 9 10 9 6 6 5 0 358 359 0 2 1 358 358 0 358 350 347 348 351 3 353 321 303 272 240 223 223 228 227 223 226 230 234 226 224 221
4 7 8 8 6 7 7 5 5 3 4 4 359 358 359 359 359 358 356 356 359 1 353 349 348 342 345 348 329 310 277 243 238 236 240 239 235 235 234 236 228 225 226
1 1 3 6 7 7 6 4 3 360 358 358 356 356 354 353 354 354 352 354 354 353 351 348 348 345 341 348 335 316 297 253 252 241 241 241 242 236 236 237 227 227 228
359 358 1 4 6 6 4 3 360 357 357 355 353 351 350 349 349 349 348 348 350 348 345 344 347 347 343 348 348 330 320 297 268 243 242 242 242 237 239 235 237 229 224
356 356 3 3 4 5 3 1 358 357 357 355 353 349 348 347 346 345 344 341 344 345 342 344 345 342 340 338 339 323 314 305 278 250 244 242 243 244 242 239 237 235 227
349 350 356 0 1 2 360 357 356 354 351 350 349 348 343 343 343 340 337 338 343 347 349 345 339 336 337 337 335 327 317 303 278 262 251 250 247 245 242 237 238 235 233
346 350 350 355 356 356 353 352 352 351 348 349 348 342 339 337 335 334 332 336 340 345 347 350 342 338 337 336 332 329 318 305 279 254 246 239 237 242 243 239 232 234 233
339 340 344 346 346 348 350 348 348 349 346 347 347 343 338 336 333 329 334 336 338 341 342 347 347 340 334 326 324 325 324 314 286 257 248 245 250 251 244 240 243 243 242
334 335 337 336 340 341 342 343 343 345 345 347 347 345 341 337 335 328 326 326 330 336 336 338 338 331 328 320 318 320 319 305 289 278 269 258 262 255 247 244 244 243 242
330 328 327 328 332 336 336 335 336 338 342 343 344 342 342 341 335 330 326 321 319 326 326 325 325 320 320 318 315 316 314 301 289 284 278 268 262 261 255 246 241 242 244
327 324 321 324 330 332 331 327 327 331 335 335 337 336 335 335 333 330 328 323 319 321 321 319 321 317 314 314 309 310 312 304 290 282 279 278 268 264 257 244 238 238 243
321 316 318 322 326 327 329 326 325 327 329 330 331 331 327 328 331 331 326 322 321 317 315 314 317 314 312 312 309 308 312 308 294 286 281 279 272 265 259 248 242 242 246
316 316 318 319 321 320 324 326 322 323 324 326 327 329 328 329 331 331 332 327 324 319 315 312 309 309 309 309 307 306 307 307 300 291 287 278 267 263 260 259 249 249 249
304 311 314 315 317 320 324 324 318 315 318 321 323 326 325 326 330 329 329 326 323 321 318 313 307 305 306 307 306 304 304 301 296 295 292 285 271 263 261 257 256 255 254
302 306 309 311 313 314 317 317 313 310 312 315 317 320 319 322 323 323 320 320 318 314 315 314 309 307 305 305 304 302 299 297 296 296 289 285 276 264 261 259 257 257 259
304 304 303 305 308 309 310 309 310 309 310 310 309 309 311 314 317 317 314 313 311 311 313 315 313 310 308 305 304 304 301 297 296 295 289 284 277 267 260 258 259 259 260
301 301 300 301 303 305 306 306 308 307 308 308 305 304 302 304 309 310 311 312 311 310 312 314 315 313 312 310 307 305 302 300 298 296 292 284 276 270 266 261 259 261 262
294 298 306 309 304 305 305 303 307 307 306 305 303 304 301 302 304 308 309 312 312 313 313 315 316 314 312 312 312 310 306 303 304 301 296 286 277 272 268 263 261 260 260
Height
5897 5895 5895 5894 5893 5892 5891 5890 5889 5888 5887 5886 5885 5883 5882 5880 5879 5877 5876 5875 5874 5873 5872 5871 5871 5870 5869 5869 5869 5869 5869 5869 5869 5869 5869 5869 5870 5870 5871 5871 5872 5872 5873
5898 5896 5896 5895 5893 5892 5891 5890 5889 5888 5887 5886 5885 5883 5882 5880 5879 5877 5876 5875 5873 5872 5871 5871 5870 5869 5869 5868 5868 5868 5868 5868 5868 5868 5869 5869 5869 5869 5870 5871 5871 5871 5872
5898 5897 5896 5895 5894 5893 5892 5890 5889 5888 5887 5886 5885 5883 5882 5880 5879 5877 5876 5875 5873 5872 5871 5870 5870 5869 5868 5868 5867 5867 5867 5867 5867 5868 5868 5868 5868 5869 5869 5870 5870 5871 5872
5899 5898 5897 5896 5895 5893 5892 5891 5890 5888 5887 5886 5885 5883 5882 5881 5879 5878 5876 5875 5873 5872 5871 5870 5869 5868 5868 5867 5867 5866 5866 5867 5867 5867 5867 5867 5868 5868 5869 5869 5870 5870 5871
5900 5898 5897 5896 5895 5894 5892 5891 5890 5889 5887 5886 5885 5884 5882 5881 5879 5878 5876 5875 5873 5872 5871 5870 5869 5868 5867 5867 5866 5866 5866 5866 5866 5866 5866 5867 5867 5868 5868 5869 5869 5869 5870
5900 5899 5898 5897 5895 5894 5893 5891 5890 5889 5887 5886 5885 5884 5882 5881 5879 5878 5876 5875 5873 5872 5871 5870 5869 5868 5867 5867 5866 5866 5865 5866 5865 5866 5866 5866 5866 5867 5867 5868 5868 5869 5869
5901 5900 5898 5897 5896 5894 5893 5891 5890 5889 5887 5886 5885 5884 5882 5881 5879 5878 5876 5875 5873 5872 5871 5870 5869 5868 5867 5866 5865 5865 5864 5865 5865 5865 5865 5865 5866 5866 5867 5867 5868 5868 5868
5901 5900 5899 5897 5896 5895 5893 5891 5890 5889 5887 5886 5885 5884 5882 5881 5879 5878 5877 5875 5873 5872 5871 5870 5869 5868 5867 5866 5865 5864 5864 5865 5865 5865 5865 5865 5865 5865 5866 5866 5866 5867 5867
5901 5900 5899 5898 5896 5895 5893 5892 5890 5889 5887 5886 5885 5884 5882 5881 5879 5878 5876 5875 5873 5872 5871 5870 5869 5867 5866 5865 5865 5864 5863 5864 5864 5864 5864 5864 5864 5864 5865 5865 5865 5866 5866
5901 5900 5899 5898 5896 5895 5893 5892 5890 5889 5887 5886 5885 5883 5882 5880 5879 5878 5876 5875 5873 5872 5871 5869 5868 5867 5866 5865 5864 5863 5863 5863 5863 5863 5863 5863 5863 5863 5863 5863 5864 5864 5865
5901 5900 5899 5898 5896 5895 5893 5892 5890 5888 5887 5886 5885 5883 5881 5880 5879 5877 5876 5874 5873 5872 5870 5869 5868 5867 5865 5864 5863 5863 5862 5862 5862 5861 5861 5862 5862 5862 5862 5862 5862 5863 5863
5901 5900 5898 5897 5896 5894 5893 5891 5890 5888 5887 5885 5884 5882 5881 5880 5878 5877 5876 5874 5873 5871 5870 5869 5867 5866 5865 5864 5863 5862 5862 5861 5860 5860 5860 5860 5860 5860 5860 5860 5860 5861 5861
5901 5899 5898 5897 5895 5894 5893 5891 5889 5888 5886 5885 5883 5882 5881 5879 5878 5877 5875 5874 5872 5871 5870 5868 5867 5866 5865 5863 5862 5861 5861 5860 5859 5859 5858 5859 5858 5858 5858 5858 5858 5859 5860
5901 5899 5897 5896 5895 5894 5892 5891 5889 5887 5886 5884 5883 5881 5880 5879 5878 5876 5875 5873 5872 5871 5869 5868 5866 5865 5864 5863 5862 5861 5859 5858 5858 5857 5857 5857 5857 5857 5857 5857 5857 5858 5858
5900 5898 5897 5895 5894 5892 5891 5890 5888 5887 5885 5883 5882 5880 5879 5878 5877 5875 5874 5873 5871 5870 5869 5867 5865 5864 5863 5862 5861 5860 5859 5857 5856 5856 5855 5855 5855 5855 5854 5854 5855 5856 5856
5898 5897 5896 5894 5893 5891 5890 5889 5887 5886 5884 5883 5881 5880 5878 5877 5875 5874 5873 5872 5871 5869 5868 5866 5865 5863 5862 5861 5860 5859 5858 5856 5855 5854 5854 5853 5853 5853 5852 5852 5853 5854 5854
5897 5896 5895 5893 5892 5890 5889 5887 5886 5885 5883 5882 5880 5879 5877 5876 5874 5873 5872 5871 5870 5868 5867 5865 5864 5863 5861 5860 5859 5858 5857 5855 5854 5853 5852 5851 5851 5850 5850 5851 5851 5852 5853
5895 5894 5893 5892 5890 5889 5887 5886 5885 5883 5882 5881 5879 5878 5876 5875 5873 5872 5870 5869 5868 5867 5866 5864 5863 5862 5860 5859 5858 5857 5855 5854 5852 5851 5850 5850 5849 5848 5848 5849 5849 5850 5851
5894 5893 5891 5890 5889 5888 5887 5885 5884 5882 5881 5879 5878 5876 5875 5873 5871 5870 5869 5867 5866 5865 5864 5863 5862 5861 5859 5858 5857 5855 5854 5852 5851 5850 5849 5848 5847 5846 5846 5847 5847 5848 5849
5892 5891 5890 5888 5887 5886 5885 5883 5882 5880 5879 5878 5876 5874 5873 5871 5870 5868 5867 5866 5865 5863 5862 5861 5860 5859 5857 5856 5855 5854 5852 5850 5849 5848 5847 5847 5846 5845 5845 5845 5846 5846 5847
5891 5889 5888 5887 5886 5885 5883 5881 5880 5878 5877 5876 5874 5872 5871 5869 5868 5867 5865 5864 5863 5862 5860 5859 5858 5857 5856 5854 5853 5852 5850 5849 5847 5846 5845 5844 5844 5843 5843 5843 5843 5844 5844
5889 5887 5886 5886 5884 5883 5881 5879 5878 5876 5875 5874 5872 5870 5869 5868 5866 5865 5863 5862 5861 5859 5858 5857 5856 5855 5853 5852 5851 5850 5848 5847 5846 5844 5843 5842 5842 5841 5841 5841 5841 5841 5842
5885 5885 5885 5884 5882 5880 5879 5877 5876 5874 5873 5871 5870 5868 5867 5865 5864 5863 5861 5860 5859 5858 5856 5855 5853 5852 5851 5850 5848 5847 5846 5844 5843 5842 5841 5840 5839 5839 5838 5838 5838 5838 5838
5884 5882 5882 5880 5879 5878 5876 5874 5873 5871 5870 5869 5867 5865 5864 5863 5862 5860 5859 5858 5857 5855 5854 5852 5851 5849 5848 5846 5845 5844 5843 5841 5840 5839 5838 5836 5836 5836 5835 5835 5835 5835 5835
5881 5880 5878 5877 5876 5874 5873 5872 5870 5869 5867 5866 5864 5863 5861 5860 5859 5858 5857 5856 5854 5853 5851 5849 5848 5846 5845 5844 5842 5841 5839 5838 5837 5836 5834 5833 5832 5832 5831 5831 5831 5831 5831
5878 5876 5875 5874 5873 5872 5870 5868 5867 5866 5864 5863 5861 5860 5859 5857 5857 5855 5854 5853 5852 5850 5849 5847 5845 5844 5842 5841 5839 5837 5836 5835 5833 5832 5830 5829 5828 5828 5827 5827 5827 5827 5826